[[{"header":{"parameterUnit":"m.s-1","parameterCategory":1,"la1":30.2992,"la2":30.254,"lo1":-89.0895,"lo2":-89.0443,"dy":0.0025,"dx":0.0025,"nx":19,"ny":19,"refTime":"2026-03-20T09:00:00:Z","depth":0,"parameterNumber":2,"parameterNumberName":"U-component_of_WINDS"},"data":[0,0,0,2.6874,2.6879,2.7091,2.7092,2.7367,2.737,0,0,0,0,0,0,0,0,0,0,0,2.6815,2.6817,2.6874,2.688,2.7091,2.7092,2.7367,2.737,0,0,0,0,0,0,0,0,0,0,0,2.6814,2.6816,2.6819,2.688,2.7091,2.7092,2.7366,2.7205,0,0,0,0,0,0,0,0,0,0,2.6998,2.6947,2.6816,2.6819,2.6882,2.7091,2.7092,2.7197,2.7215,2.7273,0,2.7326,0,2.7352,2.7388,2.7389,0,0,0,2.6877,2.6932,2.6986,2.6819,2.6884,2.709,2.6995,2.7207,2.7227,2.7297,2.733,2.734,2.7357,2.739,2.7392,2.7734,2.7736,0,0,2.6865,2.6855,2.6972,2.6999,2.6967,2.6988,2.7002,2.7219,2.7255,2.7331,2.7347,2.7361,2.7392,2.7394,2.7733,2.7735,0,0,0,2.6833,2.6847,2.6896,2.6988,2.7026,2.6994,2.701,2.7245,2.7262,2.735,2.7365,2.7394,2.7397,2.7731,2.7734,2.7806,0,0,0,2.6826,2.6828,2.6891,2.6886,2.7022,2.7138,2.7031,2.7247,2.7271,2.7363,2.7394,2.74,2.7729,2.7732,2.78,2.7842,0,0,0,2.68,2.6825,2.6857,2.6885,2.6976,2.7135,2.7164,2.7252,2.7281,2.739,2.7401,2.7728,2.7732,2.7795,2.7834,2.7927,0,0,0,2.6769,2.6921,2.6858,2.7033,2.6974,2.7179,2.7163,2.7316,2.7418,2.7395,2.7729,2.7733,2.7793,2.7828,2.7922,2.8003,2.8037,0,0,2.6955,2.6943,2.7046,2.6996,2.7209,2.7147,2.7371,2.7475,2.7495,2.7653,2.7662,2.7802,2.7833,2.7926,2.8231,2.8257,0,0,0,2.7101,2.7175,2.7234,2.733,2.7412,2.7485,2.7555,2.7593,2.7728,2.7574,2.7863,2.7882,2.7936,2.7976,2.7998,2.8045,2.7752,2.7751,2.7751,2.7349,2.7365,2.7536,2.7577,2.767,2.774,2.7816,2.7879,2.787,2.7938,2.7984,2.8167,2.8213,2.823,2.8278,2.803,2.8031,2.8031,2.8031,2.762,2.7726,2.7708,2.7867,2.7882,2.8017,2.8088,2.8077,2.8203,2.8134,2.8184,2.8106,2.8259,2.8302,2.8037,2.8036,2.8035,2.8035,2.8034,2.7783,2.7836,2.7878,2.8016,2.812,2.8157,2.8277,2.8288,2.8299,2.8348,2.8396,2.8395,2.8393,2.8371,2.8371,2.8372,2.8372,2.8373,2.8373,2.7934,2.7979,2.8079,2.8177,2.8237,2.8319,2.8388,2.8449,2.8518,2.8516,2.8517,2.8499,2.8271,2.8212,2.8383,2.8381,2.838,2.8379,2.8378,2.82,2.8141,2.8295,2.8356,2.8469,2.857,2.8582,2.8702,2.8754,2.8812,2.8784,2.8615,2.8603,2.8586,2.8537,2.8781,2.8781,2.8781,2.8781,2.8336,2.833,2.8489,2.8585,2.868,2.8705,2.8877,2.8931,2.8978,2.901,2.8976,2.8913,2.8895,2.8894,2.887,2.8824,2.9137,2.9137,2.9137,2.8499,2.8503,2.8648,2.8691,2.878,2.8855,2.9016,2.9125,2.9167,2.9152,2.9035,2.902,2.8918,2.8884,2.8867,2.8828,2.8745,0,0]},{"header":{"parameterUnit":"m.s-1","parameterCategory":1,"la1":30.2992,"la2":30.254,"lo1":-89.0895,"lo2":-89.0443,"dy":0.0025,"dx":0.0025,"nx":19,"ny":19,"refTime":"2026-03-20T09:00:00:Z","depth":0,"parameterNumber":3,"parameterNumberName":"V-component_of_WINDS"},"data":[0,0,0,-0.2733,-0.2733,-0.2748,-0.2749,-0.2757,-0.2757,0,0,0,0,0,0,0,0,0,0,0,-0.2721,-0.2721,-0.2733,-0.2733,-0.2748,-0.2749,-0.2757,-0.2757,0,0,0,0,0,0,0,0,0,0,0,-0.2721,-0.2721,-0.2721,-0.2733,-0.2748,-0.2749,-0.2757,-0.275,0,0,0,0,0,0,0,0,0,0,-0.2737,-0.2719,-0.2721,-0.2721,-0.2733,-0.2748,-0.2749,-0.275,-0.275,-0.2746,0,-0.2739,0,-0.2748,-0.2757,-0.2757,0,0,0,-0.2739,-0.2718,-0.2729,-0.2721,-0.2733,-0.2748,-0.2743,-0.275,-0.2751,-0.2746,-0.2739,-0.274,-0.2748,-0.2757,-0.2757,-0.2712,-0.2711,0,0,-0.2738,-0.272,-0.2728,-0.2729,-0.2725,-0.2743,-0.2743,-0.2751,-0.2742,-0.2739,-0.274,-0.2749,-0.2757,-0.2757,-0.2712,-0.2712,0,0,0,-0.2732,-0.2719,-0.273,-0.2728,-0.2732,-0.2743,-0.2744,-0.2742,-0.2747,-0.2741,-0.2749,-0.2757,-0.2757,-0.2713,-0.2712,-0.2671,0,0,0,-0.2731,-0.2716,-0.2729,-0.2719,-0.2731,-0.2737,-0.2734,-0.2746,-0.2748,-0.2749,-0.2757,-0.2757,-0.2713,-0.2713,-0.2674,-0.2655,0,0,0,-0.2723,-0.2715,-0.2714,-0.2718,-0.2724,-0.2737,-0.2743,-0.2747,-0.2752,-0.2757,-0.2757,-0.2714,-0.2713,-0.2676,-0.2658,-0.2638,0,0,0,-0.2708,-0.2677,-0.2713,-0.2683,-0.2723,-0.2712,-0.2743,-0.2735,-0.2735,-0.2757,-0.2713,-0.2712,-0.2676,-0.266,-0.264,-0.2616,-0.2605,0,0,-0.2659,-0.2671,-0.2654,-0.2687,-0.2664,-0.2711,-0.2683,-0.2699,-0.2716,-0.2713,-0.2712,-0.2673,-0.2658,-0.2638,-0.2551,-0.2542,0,0,0,-0.2633,-0.2621,-0.2619,-0.2617,-0.263,-0.2639,-0.2662,-0.2668,-0.2666,-0.271,-0.2661,-0.2653,-0.2642,-0.2631,-0.2624,-0.2616,-0.2707,-0.2707,-0.2707,-0.2537,-0.2561,-0.2536,-0.2562,-0.2561,-0.2586,-0.2587,-0.26,-0.2624,-0.2612,-0.2611,-0.2555,-0.2542,-0.2537,-0.2528,-0.2602,-0.2601,-0.2601,-0.2601,-0.2467,-0.2454,-0.2489,-0.2476,-0.2502,-0.2492,-0.2516,-0.2534,-0.2529,-0.2558,-0.2549,-0.2578,-0.2526,-0.252,-0.2598,-0.2599,-0.2599,-0.2599,-0.26,-0.2407,-0.2404,-0.2413,-0.2416,-0.2415,-0.2443,-0.2437,-0.2462,-0.2484,-0.2476,-0.2478,-0.2478,-0.2482,-0.2475,-0.2475,-0.2475,-0.2475,-0.2475,-0.2474,-0.2339,-0.2351,-0.2343,-0.2355,-0.2358,-0.2366,-0.2392,-0.2396,-0.2407,-0.2426,-0.2426,-0.2451,-0.2517,-0.2532,-0.2472,-0.2472,-0.2472,-0.2473,-0.2473,-0.2258,-0.2281,-0.2268,-0.2271,-0.2288,-0.2286,-0.2318,-0.2325,-0.2333,-0.2329,-0.2358,-0.2402,-0.2416,-0.2422,-0.2435,-0.2353,-0.2353,-0.2353,-0.2353,-0.2206,-0.2216,-0.2209,-0.2213,-0.222,-0.2248,-0.2234,-0.2255,-0.2281,-0.2287,-0.2303,-0.2323,-0.2328,-0.2339,-0.2347,-0.2359,-0.2259,-0.2259,-0.2259,-0.2157,-0.2169,-0.2152,-0.2177,-0.2193,-0.2206,-0.2194,-0.2198,-0.2232,-0.2256,-0.2293,-0.2297,-0.2329,-0.2338,-0.236,-0.2372,-0.2396,0,0]}]]